User: anonymous   Login
Location: Unspecified
(0.0000°N, 0.0000°E)
Time: 01:58:24
(UTC+00:00)
Language:

STARLINK-30893 - Orbit

View from above orbital plane
View from above orbital plane
View from above satellite
View from above satellite

Ground track
Ground track

The orbit is defined by the following mean orbital elements,

1 58724U          26144.96251942 +.00000000 +00000-0 +34548-4 0 00002
2 58724  53.1590 235.6151 0000813  97.2310 262.8785 15.34394418    08
Epoch (UTC): 24 May 2026 23:06:01
Eccentricity: 0.0000813
inclination: 53.1590°
perigee height: 462 km
apogee height: 463 km
right ascension of ascending node: 235.6151°
argument of perigee: 97.2310°
revolutions per day: 15.34394418
mean anomaly at epoch: 262.8785°

The dashed part of the orbit path shows where the satellite is in the earth's shadow,  

DLR